Wetterdaten: Samstag, 22.05.2010
Datum Zeit Temp. A. Feuchte A. Luftdruck Regen Wind Richtung Richtung Sonnenschein UV Solar Windben
22.05.2010 00:00 12,6 C 70 % 1026,0 hPa 0,0 mm 0,0 km/h (0 Bft) N 0 0 min 0 UV-I 0 W/m 0,0 km/h (0 Bft)
22.05.2010 00:10 12,4 C 72 % 1026,0 hPa 0,0 mm 0,0 km/h (0 Bft) N 0 0 min 0 UV-I 0 W/m 0,0 km/h (0 Bft)
22.05.2010 00:20 12,2 C 73 % 1026,0 hPa 0,0 mm 0,0 km/h (0 Bft) N 0 0 min 0 UV-I 0 W/m 0,0 km/h (0 Bft)
22.05.2010 00:30 11,9 C 74 % 1026,0 hPa 0,0 mm 0,0 km/h (0 Bft) N 0 0 min 0 UV-I 0 W/m 0,0 km/h (0 Bft)
22.05.2010 00:40 11,7 C 75 % 1026,0 hPa 0,0 mm 0,0 km/h (0 Bft) N 360 0 min 0 UV-I 0 W/m 3,2 km/h (1 Bft)
22.05.2010 00:50 11,7 C 75 % 1026,1 hPa 0,0 mm 0,0 km/h (0 Bft) N 0 0 min 0 UV-I 0 W/m 0,0 km/h (0 Bft)
22.05.2010 01:00 11,4 C 77 % 1026,0 hPa 0,0 mm 0,0 km/h (0 Bft) N 0 0 min 0 UV-I 0 W/m 0,0 km/h (0 Bft)
22.05.2010 01:10 11,1 C 76 % 1025,9 hPa 0,0 mm 0,0 km/h (0 Bft) N 0 0 min 0 UV-I 0 W/m 0,0 km/h (0 Bft)
22.05.2010 01:20 11,3 C 72 % 1025,9 hPa 0,0 mm 0,0 km/h (0 Bft) N 360 0 min 0 UV-I 0 W/m 1,6 km/h (1 Bft)
22.05.2010 01:30 11,7 C 67 % 1025,9 hPa 0,0 mm 0,0 km/h (0 Bft) NW 315 0 min 0 UV-I 0 W/m 4,8 km/h (1 Bft)
22.05.2010 01:40 11,8 C 66 % 1025,9 hPa 0,0 mm 0,0 km/h (0 Bft) NW 315 0 min 0 UV-I 0 W/m 1,6 km/h (1 Bft)
22.05.2010 01:50 11,7 C 67 % 1025,9 hPa 0,0 mm 0,0 km/h (0 Bft) W-NW 292 0 min 0 UV-I 0 W/m 1,6 km/h (1 Bft)
22.05.2010 02:00 11,6 C 67 % 1025,9 hPa 0,0 mm 0,0 km/h (0 Bft) W-NW 292 0 min 0 UV-I 0 W/m 3,2 km/h (1 Bft)
22.05.2010 02:10 11,4 C 68 % 1025,9 hPa 0,0 mm 0,0 km/h (0 Bft) NW 315 0 min 0 UV-I 0 W/m 3,2 km/h (1 Bft)
22.05.2010 02:20 11,3 C 69 % 1025,9 hPa 0,0 mm 0,0 km/h (0 Bft) W-NW 292 0 min 0 UV-I 0 W/m 1,6 km/h (1 Bft)
22.05.2010 02:30 11,1 C 69 % 1025,9 hPa 0,0 mm 0,0 km/h (0 Bft) NW 315 0 min 0 UV-I 0 W/m 1,6 km/h (1 Bft)
22.05.2010 02:40 11,2 C 69 % 1025,9 hPa 0,0 mm 0,0 km/h (0 Bft) NW 315 0 min 0 UV-I 0 W/m 6,4 km/h (2 Bft)
22.05.2010 02:50 11,3 C 69 % 1025,9 hPa 0,0 mm 0,0 km/h (0 Bft) NW 315 0 min 0 UV-I 0 W/m 3,2 km/h (1 Bft)
22.05.2010 03:00 11,1 C 70 % 1025,8 hPa 0,0 mm 0,0 km/h (0 Bft) NW 315 0 min 0 UV-I 0 W/m 3,2 km/h (1 Bft)
22.05.2010 03:10 10,8 C 71 % 1025,9 hPa 0,0 mm 0,0 km/h (0 Bft) NW 315 0 min 0 UV-I 0 W/m 1,6 km/h (1 Bft)
22.05.2010 03:20 10,4 C 73 % 1025,8 hPa 0,0 mm 0,0 km/h (0 Bft) NW 315 0 min 0 UV-I 0 W/m 1,6 km/h (1 Bft)
22.05.2010 03:30 10,3 C 73 % 1025,7 hPa 0,0 mm 0,0 km/h (0 Bft) NW 315 0 min 0 UV-I 0 W/m 1,6 km/h (1 Bft)
22.05.2010 03:40 10,2 C 74 % 1025,8 hPa 0,0 mm 0,0 km/h (0 Bft) NW 315 0 min 0 UV-I 0 W/m 1,6 km/h (1 Bft)
22.05.2010 03:50 9,9 C 76 % 1025,8 hPa 0,0 mm 0,0 km/h (0 Bft) N 0 0 min 0 UV-I 0 W/m 0,0 km/h (0 Bft)
22.05.2010 04:00 9,8 C 77 % 1025,7 hPa 0,0 mm 0,0 km/h (0 Bft) N 0 0 min 0 UV-I 0 W/m 0,0 km/h (0 Bft)
22.05.2010 04:10 9,6 C 78 % 1025,7 hPa 0,0 mm 0,0 km/h (0 Bft) N 0 0 min 0 UV-I 0 W/m 0,0 km/h (0 Bft)
22.05.2010 04:20 9,5 C 80 % 1025,7 hPa 0,0 mm 0,0 km/h (0 Bft) N 0 0 min 0 UV-I 0 W/m 0,0 km/h (0 Bft)
22.05.2010 04:30 9,4 C 81 % 1025,6 hPa 0,0 mm 0,0 km/h (0 Bft) N 0 0 min 0 UV-I 0 W/m 0,0 km/h (0 Bft)
22.05.2010 04:40 9,3 C 81 % 1025,6 hPa 0,0 mm 0,0 km/h (0 Bft) N 0 0 min 0 UV-I 0 W/m 0,0 km/h (0 Bft)
22.05.2010 04:50 9,1 C 82 % 1025,5 hPa 0,0 mm 0,0 km/h (0 Bft) NW 315 0 min 0 UV-I 0 W/m 1,6 km/h (1 Bft)
22.05.2010 05:00 9,1 C 81 % 1025,6 hPa 0,0 mm 0,0 km/h (0 Bft) NW 315 0 min 0 UV-I 0 W/m 1,6 km/h (1 Bft)
22.05.2010 05:10 9,0 C 81 % 1025,5 hPa 0,0 mm 0,0 km/h (0 Bft) NW 315 0 min 0 UV-I 0 W/m 1,6 km/h (1 Bft)
22.05.2010 05:20 8,8 C 82 % 1025,5 hPa 0,0 mm 0,0 km/h (0 Bft) N 0 0 min 0 UV-I 0 W/m 0,0 km/h (0 Bft)
22.05.2010 05:30 8,6 C 83 % 1025,5 hPa 0,0 mm 0,0 km/h (0 Bft) NW 315 0 min 0 UV-I 5 W/m 1,6 km/h (1 Bft)
22.05.2010 05:40 8,4 C 83 % 1025,5 hPa 0,0 mm 0,0 km/h (0 Bft) NW 315 0 min 0 UV-I 9 W/m 1,6 km/h (1 Bft)
22.05.2010 05:50 8,3 C 84 % 1025,5 hPa 0,0 mm 0,0 km/h (0 Bft) NW 315 0 min 0 UV-I 12 W/m 1,6 km/h (1 Bft)
22.05.2010 06:00 8,3 C 84 % 1025,6 hPa 0,0 mm 0,0 km/h (0 Bft) NW 315 0 min 0 UV-I 18 W/m 1,6 km/h (1 Bft)
22.05.2010 06:10 8,2 C 84 % 1025,6 hPa 0,0 mm 0,0 km/h (0 Bft) N 0 0 min 0 UV-I 25 W/m 0,0 km/h (0 Bft)
22.05.2010 06:20 8,2 C 85 % 1025,6 hPa 0,0 mm 0,0 km/h (0 Bft) N 0 0 min 0 UV-I 30 W/m 0,0 km/h (0 Bft)
22.05.2010 06:30 8,3 C 85 % 1025,6 hPa 0,0 mm 0,0 km/h (0 Bft) NW 315 0 min 0 UV-I 40 W/m 1,6 km/h (1 Bft)
22.05.2010 06:40 8,5 C 85 % 1025,7 hPa 0,0 mm 0,0 km/h (0 Bft) NW 315 0 min 0 UV-I 65 W/m 1,6 km/h (1 Bft)
22.05.2010 06:50 8,7 C 84 % 1025,6 hPa 0,0 mm 0,0 km/h (0 Bft) NW 315 10 min 0 UV-I 105 W/m 4,8 km/h (1 Bft)
22.05.2010 07:00 8,9 C 83 % 1025,6 hPa 0,0 mm 0,0 km/h (0 Bft) NW 315 0 min 1 UV-I 95 W/m 3,2 km/h (1 Bft)
22.05.2010 07:10 9,2 C 82 % 1025,6 hPa 0,0 mm 0,0 km/h (0 Bft) NW 315 0 min 1 UV-I 105 W/m 1,6 km/h (1 Bft)
22.05.2010 07:20 9,4 C 82 % 1025,7 hPa 0,0 mm 0,0 km/h (0 Bft) NW 315 10 min 1 UV-I 155 W/m 4,8 km/h (1 Bft)
22.05.2010 07:30 9,7 C 82 % 1025,7 hPa 0,0 mm 0,0 km/h (0 Bft) W 270 10 min 1 UV-I 188 W/m 4,8 km/h (1 Bft)
22.05.2010 07:40 9,8 C 81 % 1025,8 hPa 0,0 mm 0,0 km/h (0 Bft) W 270 10 min 1 UV-I 213 W/m 4,8 km/h (1 Bft)
22.05.2010 07:50 10,0 C 81 % 1025,8 hPa 0,0 mm 0,0 km/h (0 Bft) W 270 10 min 1 UV-I 230 W/m 3,2 km/h (1 Bft)
22.05.2010 08:00 10,4 C 80 % 1025,9 hPa 0,0 mm 0,2 km/h (0 Bft) W 280 10 min 1 UV-I 216 W/m 1,6 km/h (1 Bft)
22.05.2010 08:10 10,3 C 80 % 1025,8 hPa 0,0 mm 0,0 km/h (0 Bft) W 270 10 min 1 UV-I 301 W/m 6,4 km/h (2 Bft)
22.05.2010 08:20 10,5 C 80 % 1025,8 hPa 0,0 mm 3,2 km/h (1 Bft) W-SW 247 10 min 1 UV-I 311 W/m 9,7 km/h (2 Bft)
22.05.2010 08:30 10,8 C 80 % 1025,8 hPa 0,0 mm 1,6 km/h (1 Bft) S-SW 202 10 min 2 UV-I 343 W/m 6,4 km/h (2 Bft)
22.05.2010 08:40 11,1 C 79 % 1025,8 hPa 0,0 mm 1,6 km/h (1 Bft) W 270 10 min 2 UV-I 330 W/m 8,0 km/h (2 Bft)
22.05.2010 08:50 11,2 C 79 % 1025,8 hPa 0,0 mm 3,2 km/h (1 Bft) W-SW 247 10 min 2 UV-I 279 W/m 9,7 km/h (2 Bft)
22.05.2010 09:00 11,1 C 80 % 1025,8 hPa 0,0 mm 3,2 km/h (1 Bft) W 270 10 min 2 UV-I 480 W/m 9,7 km/h (2 Bft)
22.05.2010 09:10 11,4 C 79 % 1025,9 hPa 0,0 mm 3,2 km/h (1 Bft) W 270 10 min 2 UV-I 504 W/m 8,0 km/h (2 Bft)
22.05.2010 09:20 12,1 C 77 % 1025,8 hPa 0,0 mm 3,2 km/h (1 Bft) W-SW 247 10 min 3 UV-I 513 W/m 9,7 km/h (2 Bft)
22.05.2010 09:30 12,1 C 78 % 1025,8 hPa 0,0 mm 3,2 km/h (1 Bft) W-NW 292 10 min 3 UV-I 534 W/m 11,3 km/h (2 Bft)
22.05.2010 09:40 12,2 C 79 % 1025,8 hPa 0,0 mm 1,6 km/h (1 Bft) W 270 10 min 3 UV-I 612 W/m 8,0 km/h (2 Bft)
22.05.2010 09:50 12,8 C 76 % 1025,8 hPa 0,0 mm 3,2 km/h (1 Bft) W 270 10 min 3 UV-I 598 W/m 11,3 km/h (2 Bft)
22.05.2010 10:00 12,9 C 75 % 1025,7 hPa 0,0 mm 3,2 km/h (1 Bft) W-NW 292 10 min 4 UV-I 635 W/m 14,5 km/h (3 Bft)
22.05.2010 10:10 13,2 C 73 % 1025,7 hPa 0,0 mm 3,2 km/h (1 Bft) W-SW 247 10 min 4 UV-I 721 W/m 11,3 km/h (2 Bft)
22.05.2010 10:20 13,3 C 76 % 1025,7 hPa 0,0 mm 3,2 km/h (1 Bft) W-SW 247 10 min 4 UV-I 668 W/m 9,7 km/h (2 Bft)
22.05.2010 10:30 13,5 C 75 % 1025,6 hPa 0,0 mm 4,8 km/h (1 Bft) W 270 10 min 4 UV-I 691 W/m 14,5 km/h (3 Bft)
22.05.2010 10:40 13,6 C 76 % 1025,6 hPa 0,0 mm 4,8 km/h (1 Bft) W-NW 292 10 min 5 UV-I 698 W/m 9,7 km/h (2 Bft)
22.05.2010 10:50 13,9 C 74 % 1025,6 hPa 0,0 mm 4,8 km/h (1 Bft) W-NW 292 10 min 5 UV-I 754 W/m 11,3 km/h (2 Bft)
22.05.2010 11:00 14,3 C 73 % 1025,7 hPa 0,0 mm 3,2 km/h (1 Bft) W-SW 247 10 min 5 UV-I 775 W/m 9,7 km/h (2 Bft)
22.05.2010 11:10 14,7 C 73 % 1025,7 hPa 0,0 mm 3,2 km/h (1 Bft) NW 315 10 min 5 UV-I 777 W/m 9,7 km/h (2 Bft)
22.05.2010 11:20 14,5 C 73 % 1025,6 hPa 0,0 mm 4,8 km/h (1 Bft) W 270 10 min 6 UV-I 803 W/m 9,7 km/h (2 Bft)
22.05.2010 11:30 14,7 C 72 % 1025,5 hPa 0,0 mm 3,2 km/h (1 Bft) NW 315 10 min 6 UV-I 821 W/m 11,3 km/h (2 Bft)
22.05.2010 11:40 15,2 C 71 % 1025,5 hPa 0,0 mm 3,2 km/h (1 Bft) N-NO 22 10 min 6 UV-I 840 W/m 12,9 km/h (3 Bft)
22.05.2010 11:50 15,5 C 71 % 1025,4 hPa 0,0 mm 3,2 km/h (1 Bft) N-NO 22 10 min 6 UV-I 849 W/m 9,7 km/h (2 Bft)
22.05.2010 12:00 15,7 C 70 % 1025,2 hPa 0,0 mm 4,8 km/h (1 Bft) W 270 10 min 6 UV-I 844 W/m 11,3 km/h (2 Bft)
22.05.2010 12:10 15,8 C 70 % 1025,2 hPa 0,0 mm 3,2 km/h (1 Bft) W 270 10 min 7 UV-I 807 W/m 11,3 km/h (2 Bft)
22.05.2010 12:20 16,2 C 69 % 1025,2 hPa 0,0 mm 3,2 km/h (1 Bft) W 270 10 min 7 UV-I 898 W/m 14,5 km/h (3 Bft)
22.05.2010 12:30 16,7 C 69 % 1025,2 hPa 0,0 mm 3,2 km/h (1 Bft) W 270 10 min 7 UV-I 981 W/m 11,3 km/h (2 Bft)
22.05.2010 12:40 16,8 C 71 % 1025,1 hPa 0,0 mm 4,8 km/h (1 Bft) W-NW 292 10 min 7 UV-I 719 W/m 12,9 km/h (3 Bft)
22.05.2010 12:50 16,9 C 70 % 1025,0 hPa 0,0 mm 3,2 km/h (1 Bft) W 270 10 min 6 UV-I 698 W/m 14,5 km/h (3 Bft)
22.05.2010 13:00 17,2 C 69 % 1025,0 hPa 0,0 mm 3,2 km/h (1 Bft) W-SW 247 10 min 5 UV-I 538 W/m 14,5 km/h (3 Bft)
22.05.2010 13:10 17,1 C 70 % 1025,1 hPa 0,0 mm 4,8 km/h (1 Bft) W 270 10 min 4 UV-I 464 W/m 16,1 km/h (3 Bft)
22.05.2010 13:20 16,6 C 72 % 1025,1 hPa 0,0 mm 3,2 km/h (1 Bft) W-NW 292 0 min 4 UV-I 424 W/m 11,3 km/h (2 Bft)
22.05.2010 13:30 16,6 C 72 % 1025,1 hPa 0,0 mm 3,2 km/h (1 Bft) N-NW 337 10 min 4 UV-I 469 W/m 9,7 km/h (2 Bft)
22.05.2010 13:40 16,5 C 72 % 1025,1 hPa 0,0 mm 3,2 km/h (1 Bft) NW 315 10 min 4 UV-I 466 W/m 11,3 km/h (2 Bft)
22.05.2010 13:50 16,4 C 73 % 1024,9 hPa 0,0 mm 3,2 km/h (1 Bft) NW 315 10 min 4 UV-I 473 W/m 9,7 km/h (2 Bft)
22.05.2010 14:00 16,3 C 74 % 1025,1 hPa 0,0 mm 3,2 km/h (1 Bft) NW 315 0 min 4 UV-I 401 W/m 12,9 km/h (3 Bft)
22.05.2010 14:10 16,4 C 73 % 1025,0 hPa 0,0 mm 3,2 km/h (1 Bft) N-NO 22 10 min 5 UV-I 594 W/m 12,9 km/h (3 Bft)
22.05.2010 14:20 16,4 C 74 % 1025,1 hPa 0,0 mm 3,2 km/h (1 Bft) N 360 10 min 5 UV-I 624 W/m 9,7 km/h (2 Bft)
22.05.2010 14:30 17,0 C 71 % 1025,0 hPa 0,0 mm 3,2 km/h (1 Bft) N 360 10 min 7 UV-I 1136 W/m 8,0 km/h (2 Bft)
22.05.2010 14:40 17,6 C 72 % 1024,9 hPa 0,0 mm 3,2 km/h (1 Bft) N-NO 22 10 min 6 UV-I 905 W/m 9,7 km/h (2 Bft)
22.05.2010 14:50 18,1 C 69 % 1024,8 hPa 0,0 mm 1,6 km/h (1 Bft) N-NO 22 10 min 7 UV-I 937 W/m 8,0 km/h (2 Bft)
22.05.2010 15:00 18,3 C 69 % 1024,6 hPa 0,0 mm 3,2 km/h (1 Bft) W-SW 247 10 min 6 UV-I 928 W/m 11,3 km/h (2 Bft)
22.05.2010 15:10 18,7 C 67 % 1024,6 hPa 0,0 mm 3,2 km/h (1 Bft) N-NO 22 10 min 6 UV-I 879 W/m 9,7 km/h (2 Bft)
22.05.2010 15:20 18,9 C 69 % 1024,4 hPa 0,0 mm 3,2 km/h (1 Bft) N-NO 22 10 min 6 UV-I 888 W/m 6,4 km/h (2 Bft)
22.05.2010 15:30 19,1 C 68 % 1024,2 hPa 0,0 mm 1,6 km/h (1 Bft) W 270 10 min 6 UV-I 863 W/m 9,7 km/h (2 Bft)
22.05.2010 15:40 20,2 C 63 % 1024,2 hPa 0,0 mm 3,2 km/h (1 Bft) N-NO 22 10 min 5 UV-I 846 W/m 12,9 km/h (3 Bft)
22.05.2010 15:50 19,7 C 66 % 1024,0 hPa 0,0 mm 4,8 km/h (1 Bft) W-NW 292 10 min 5 UV-I 791 W/m 11,3 km/h (2 Bft)
22.05.2010 16:00 20,0 C 65 % 1023,9 hPa 0,0 mm 4,6 km/h (1 Bft) W 267 10 min 5 UV-I 760 W/m 11,3 km/h (2 Bft)
22.05.2010 16:10 20,1 C 64 % 1023,8 hPa 0,0 mm 3,2 km/h (1 Bft) W 270 10 min 5 UV-I 752 W/m 9,7 km/h (2 Bft)
22.05.2010 16:20 20,6 C 62 % 1023,7 hPa 0,0 mm 4,8 km/h (1 Bft) W 270 10 min 4 UV-I 747 W/m 14,5 km/h (3 Bft)
22.05.2010 16:30 20,4 C 62 % 1023,6 hPa 0,0 mm 4,8 km/h (1 Bft) W 270 10 min 4 UV-I 722 W/m 14,5 km/h (3 Bft)
22.05.2010 16:40 20,8 C 62 % 1023,6 hPa 0,0 mm 3,2 km/h (1 Bft) W-NW 292 10 min 4 UV-I 693 W/m 8,0 km/h (2 Bft)
22.05.2010 16:50 20,7 C 62 % 1023,5 hPa 0,0 mm 3,2 km/h (1 Bft) NW 315 10 min 3 UV-I 694 W/m 9,7 km/h (2 Bft)
22.05.2010 17:00 21,1 C 60 % 1023,4 hPa 0,0 mm 4,8 km/h (1 Bft) W-NW 292 10 min 3 UV-I 666 W/m 11,3 km/h (2 Bft)
22.05.2010 17:10 21,1 C 61 % 1023,2 hPa 0,0 mm 4,8 km/h (1 Bft) NW 315 10 min 3 UV-I 610 W/m 12,9 km/h (3 Bft)
22.05.2010 17:20 21,2 C 60 % 1023,2 hPa 0,0 mm 4,8 km/h (1 Bft) W 270 10 min 3 UV-I 626 W/m 14,5 km/h (3 Bft)
22.05.2010 17:30 21,4 C 60 % 1023,1 hPa 0,0 mm 4,8 km/h (1 Bft) NW 315 10 min 2 UV-I 584 W/m 11,3 km/h (2 Bft)
22.05.2010 17:40 21,3 C 60 % 1023,1 hPa 0,0 mm 4,8 km/h (1 Bft) W-NW 292 10 min 2 UV-I 378 W/m 14,5 km/h (3 Bft)
22.05.2010 17:50 20,9 C 62 % 1023,0 hPa 0,0 mm 1,6 km/h (1 Bft) NW 315 0 min 1 UV-I 246 W/m 8,0 km/h (2 Bft)
22.05.2010 18:00 20,8 C 63 % 1022,9 hPa 0,0 mm 4,8 km/h (1 Bft) W-NW 292 0 min 1 UV-I 250 W/m 11,3 km/h (2 Bft)
22.05.2010 18:10 20,7 C 62 % 1022,9 hPa 0,0 mm 3,2 km/h (1 Bft) W-NW 292 10 min 1 UV-I 295 W/m 17,7 km/h (3 Bft)
22.05.2010 18:20 20,9 C 61 % 1022,7 hPa 0,0 mm 3,2 km/h (1 Bft) NW 315 10 min 2 UV-I 403 W/m 14,5 km/h (3 Bft)
22.05.2010 18:30 21,0 C 63 % 1022,7 hPa 0,0 mm 3,2 km/h (1 Bft) W-NW 292 10 min 1 UV-I 364 W/m 12,9 km/h (3 Bft)
22.05.2010 18:40 21,1 C 62 % 1022,6 hPa 0,0 mm 1,6 km/h (1 Bft) NW 315 10 min 1 UV-I 392 W/m 8,0 km/h (2 Bft)
22.05.2010 18:50 21,3 C 62 % 1022,5 hPa 0,0 mm 1,6 km/h (1 Bft) W 270 10 min 1 UV-I 278 W/m 8,0 km/h (2 Bft)
22.05.2010 19:00 20,8 C 63 % 1022,4 hPa 0,0 mm 1,6 km/h (1 Bft) W-SW 247 0 min 1 UV-I 167 W/m 8,0 km/h (2 Bft)
22.05.2010 19:10 20,6 C 64 % 1022,2 hPa 0,0 mm 1,6 km/h (1 Bft) W 270 0 min 1 UV-I 107 W/m 8,0 km/h (2 Bft)
22.05.2010 19:20 20,4 C 64 % 1022,2 hPa 0,0 mm 1,6 km/h (1 Bft) W 270 0 min 1 UV-I 88 W/m 4,8 km/h (1 Bft)
22.05.2010 19:30 20,2 C 66 % 1022,4 hPa 0,0 mm 1,6 km/h (1 Bft) W-SW 247 0 min 0 UV-I 54 W/m 4,8 km/h (1 Bft)
22.05.2010 19:40 19,9 C 66 % 1022,2 hPa 0,0 mm 1,6 km/h (1 Bft) W-SW 247 0 min 1 UV-I 93 W/m 6,4 km/h (2 Bft)
22.05.2010 19:50 19,7 C 67 % 1022,1 hPa 0,0 mm 1,6 km/h (1 Bft) W-SW 247 0 min 0 UV-I 54 W/m 6,4 km/h (2 Bft)
22.05.2010 20:00 19,5 C 68 % 1022,1 hPa 0,0 mm 1,6 km/h (1 Bft) W 270 0 min 0 UV-I 44 W/m 8,0 km/h (2 Bft)
22.05.2010 20:10 19,3 C 68 % 1022,1 hPa 0,0 mm 0,0 km/h (0 Bft) W 270 0 min 0 UV-I 44 W/m 4,8 km/h (1 Bft)
22.05.2010 20:20 19,3 C 69 % 1022,1 hPa 0,0 mm 0,0 km/h (0 Bft) W 270 0 min 0 UV-I 33 W/m 3,2 km/h (1 Bft)
22.05.2010 20:30 19,2 C 70 % 1022,0 hPa 0,0 mm 0,0 km/h (0 Bft) W 270 0 min 0 UV-I 33 W/m 3,2 km/h (1 Bft)
22.05.2010 20:40 19,0 C 70 % 1022,0 hPa 0,0 mm 0,0 km/h (0 Bft) W 270 0 min 0 UV-I 40 W/m 3,2 km/h (1 Bft)
22.05.2010 20:50 18,9 C 72 % 1022,1 hPa 0,0 mm 0,0 km/h (0 Bft) W 270 10 min 0 UV-I 39 W/m 3,2 km/h (1 Bft)
22.05.2010 21:00 18,7 C 72 % 1022,2 hPa 0,0 mm 0,0 km/h (0 Bft) W 270 10 min 0 UV-I 21 W/m 3,2 km/h (1 Bft)
22.05.2010 21:10 18,3 C 74 % 1022,1 hPa 0,0 mm 0,0 km/h (0 Bft) W 270 0 min 0 UV-I 14 W/m 1,6 km/h (1 Bft)
22.05.2010 21:20 18,1 C 76 % 1022,3 hPa 0,0 mm 0,0 km/h (0 Bft) W 270 0 min 0 UV-I 9 W/m 3,2 km/h (1 Bft)
22.05.2010 21:30 17,4 C 78 % 1022,4 hPa 0,0 mm 0,0 km/h (0 Bft) W 270 0 min 0 UV-I 5 W/m 1,6 km/h (1 Bft)
22.05.2010 21:40 17,1 C 78 % 1022,4 hPa 0,0 mm 0,0 km/h (0 Bft) W 270 0 min 0 UV-I 0 W/m 1,6 km/h (1 Bft)
22.05.2010 21:50 16,8 C 78 % 1022,5 hPa 0,0 mm 0,0 km/h (0 Bft) W 270 0 min 0 UV-I 0 W/m 1,6 km/h (1 Bft)
22.05.2010 22:00 16,7 C 79 % 1022,5 hPa 0,0 mm 0,0 km/h (0 Bft) W 270 0 min 0 UV-I 0 W/m 3,2 km/h (1 Bft)
22.05.2010 22:10 16,7 C 76 % 1022,5 hPa 0,0 mm 0,0 km/h (0 Bft) NW 315 0 min 0 UV-I 0 W/m 3,2 km/h (1 Bft)
22.05.2010 22:20 17,0 C 75 % 1022,6 hPa 0,0 mm 0,0 km/h (0 Bft) NW 315 0 min 0 UV-I 0 W/m 9,7 km/h (2 Bft)
22.05.2010 22:30 17,2 C 74 % 1022,6 hPa 0,0 mm 0,0 km/h (0 Bft) N 360 0 min 0 UV-I 0 W/m 6,4 km/h (2 Bft)
22.05.2010 22:40 17,2 C 75 % 1022,5 hPa 0,0 mm 0,0 km/h (0 Bft) N 360 0 min 0 UV-I 0 W/m 3,2 km/h (1 Bft)
22.05.2010 22:50 16,8 C 76 % 1022,5 hPa 0,0 mm 0,0 km/h (0 Bft) N 360 0 min 0 UV-I 0 W/m 3,2 km/h (1 Bft)
22.05.2010 23:00 16,6 C 77 % 1022,6 hPa 0,0 mm 0,0 km/h (0 Bft) N 360 0 min 0 UV-I 0 W/m 4,8 km/h (1 Bft)
22.05.2010 23:10 16,4 C 77 % 1022,6 hPa 0,0 mm 0,0 km/h (0 Bft) N 360 0 min 0 UV-I 0 W/m 4,8 km/h (1 Bft)
22.05.2010 23:20 16,3 C 78 % 1022,6 hPa 0,0 mm 0,0 km/h (0 Bft) N 360 0 min 0 UV-I 0 W/m 4,8 km/h (1 Bft)
22.05.2010 23:30 15,9 C 79 % 1022,6 hPa 0,0 mm 0,0 km/h (0 Bft) N 360 0 min 0 UV-I 0 W/m 3,2 km/h (1 Bft)
22.05.2010 23:40 15,4 C 81 % 1022,6 hPa 0,0 mm 0,0 km/h (0 Bft) N 360 0 min 0 UV-I 0 W/m 1,6 km/h (1 Bft)
22.05.2010 23:50 15,3 C 81 % 1022,7 hPa 0,0 mm 0,0 km/h (0 Bft) N 360 0 min 0 UV-I 0 W/m 4,8 km/h (1 Bft)
_ Min-Zeit 06:10 17:00 20:30 - 00:00 - - - - - 00:00
Minimum _ 8,2 C 60 % 1022,0 hPa - 0,0 km/h (0 Bft) - - - - - 0,0 km/h (0 Bft)
_ Max-Zeit 17:30 06:20 00:50 00:00 10:30 - - 06:50 12:30 14:30 18:10
Maximum _ 21,6 C 85 % 1026,1 hPa 0,0 mm 4,8 km/h
W (1 Bft)
- - 10 min 7 UV-I 1136 W/m 17,7 km/h
NW (3 Bft)
Durchschnitt _ 14,8 C 73 % 1024,6 hPa #0,0 mm 1,6 km/h (1 Bft) W - #11:30 h 4 UV-I 446 W/m 6,5 km/h (2 Bft)